Вернуться в каталог

IRIDIUM 33 DEB

АктивенPO
NORAD 35484·DEBRIS·🇺🇸 United States

Запущен Sep 14, 1997 с Baikonur Cosmodrome

Loading…

Ближайшие Пролёты (ближайшие 24 часа)

TLE

СвежийSource: Space-Track

Эпоха: Sep 12, 2026, 04:32 UTC

1 35484U 97051QE  26255.18948362  .00047429  00000-0  19573-2 0  9990
2 35484  86.3412 221.8375 0012204 161.4879 198.6812 15.23778202661468

Отслеживайте IRIDIUM 33 DEB в реальном времени с AllMySat

Download on the App Store